Regional Weather Roundup
Issued by NWS Upton, NY

Current Version | Previous Version | Graphics & Text | Print | Product List | Glossary Off
Versions: 1 2 3 4 5 6 7 8 9 10 11 12 13 14 15 16 17 18 19 20 21 22 23 24 25 26 27

000
ASUS41 KOKX 221007
RWROKX

REGIONAL WEATHER ROUNDUP
NATIONAL WEATHER SERVICE NEW YORK NY
600 AM EDT WED MAR 22 2017

NOTE: "FAIR" INDICATES FEW OR NO CLOUDS BELOW 12,000 FEET WITH NO
SIGNIFICANT WEATHER AND/OR OBSTRUCTIONS TO VISIBILITY.

NYZ071-072-176-178-NJZ106-104-221100-
NEW YORK CITY METRO AREA

CITY           SKY/WX    TMP DP  RH WIND       PRES   REMARKS
Central Park   CLEAR     40  18  41 NW10G22   29.95R WCI  33
Wall St Helipt SUNNY     42  22  44 VRB3      29.95R
LaGuardia APRT PTCLDY    43  19  38 NW22G31   29.92R
Kennedy INTL   PTCLDY    42  20  41 NW29G40   29.93R
Breezy Point     N/A     39 N/A N/A N22G32      N/A  WCI  29
Newark/Liberty PTCLDY    41  20  43 NW21G33   29.94R
Teterboro      CLEAR     40  18  41 NW13G25   29.94R WCI  32
$$

NYZ177-179-078>081-221100-
LONG ISLAND NEW YORK

CITY           SKY/WX    TMP DP  RH WIND       PRES   REMARKS
Jones Beach      N/A     41 N/A N/A NW25G35     N/A
Matinecock PT  NOT AVBL
Farmingdale    CLEAR     41  22  46 NW15G28   29.91R
MacArthur/ISP  CLEAR     41  20  43 NW24G33   29.88R
Shirley        CLEAR     41  23  48 NW13      29.89R
Westhampton    CLEAR     41  20  43 NW16G23   29.87R
East Hampton     N/A     41  23  47 NW8       29.84R
Montauk          N/A     41  31  67 W8        29.84R
$$

NYZ052-065-067-221100-
HUDSON VALLEY

CITY           SKY/WX    TMP DP  RH WIND       PRES   REMARKS
White Plains   PTCLDY    37  18  46 NW26G37   29.89R WCI  25
Newburgh       CLEAR     36  21  55 NW18G30   29.91S WCI  25
Montgomery     MOCLDY    36  19  50 W14G23    29.92R WCI  27
Poughkeepsie   CLEAR     36  18  48 W10       29.90R WCI  28
Albany         MOCLDY    33  21  61 NW16G31   29.93R WCI  23
$$

NJZ001-105-106-008-010-013-015-019>022-104-221100-
NEW JERSEY

CITY           SKY/WX    TMP DP  RH WIND       PRES   REMARKS
Newark/Liberty PTCLDY    41  20  43 NW21G33   29.94R
Teterboro      CLEAR     40  18  41 NW13G25   29.94R WCI  32
Caldwell       CLEAR     38  19  46 NW10G18   29.95R WCI  31
Somerville     CLEAR     40  21  46 NW13      29.95R WCI  32
Linden           N/A     40  21  46 NW16G23   29.95R WCI  32
Sussex         CLEAR     36  19  50 NW15G23   29.95R WCI  27
Andover          N/A     35  16  45 N8G22     29.95R WCI  29
Trenton        CLEAR     41  25  53 NW8       29.96R
Millville      MOCLDY    48  28  46 NW9       29.93R
Atlantic City  MOCLDY    40  31  70 NW7       29.92R
Wrightstown    PTCLDY    41  25  53 N9        29.93R
Toms River     MOCLDY    41  29  62 NW9       29.94R
Belmar         CLEAR    N/A N/A N/A NW18      29.94R
$$

PAZ047>061-062-071-221100-
EASTERN PENNSYLVANIA

CITY           SKY/WX    TMP DP  RH WIND       PRES   REMARKS
Philadelphia   PTCLDY    46  23  40 NW15G23   29.98R
Allentown      CLEAR     37  17  44 NW15G26   29.99R WCI  28
Scranton       LGT SNOW  30  24  78 NW22G28   30.03R WCI  17
$$

CTZ002-004>006-009-010-012-RIZ004-006-007-MAZ004-011-015-221100-
SOUTHERN NEW ENGLAND
 IN CT

CITY           SKY/WX    TMP DP  RH WIND       PRES   REMARKS
Bradley INTL   PTCLDY    37  21  52 NW21G29   29.83R WCI  26
Hartford       CLEAR     37  21  52 W7        29.85R WCI  32
Danbury        CLEAR     36  19  50 W12G23    29.89R WCI  28
Wtrbury/Oxford PTCLDY    36  18  48 NW7G23    29.86R WCI  30
Bridgeport     CLEAR     41  21  44 W14G25    29.88R
Meriden        CLEAR     32  25  75 N3        29.86R
New Haven      CLEAR     39  23  52 NW6       29.87R WCI  35
Chester          N/A     37  19  48 NW9G17    29.83R WCI  31
Groton         CLEAR     39  23  52 NW12      29.83R WCI  32
Wilimantic     PTCLDY    37  23  56 NW7       29.83R WCI  32

 IN RI

CITY           SKY/WX    TMP DP  RH WIND       PRES   REMARKS
Providence     PTCLDY    38  21  50 W10       29.80R WCI  31
Block Island   PTCLDY    39  34  82 NW7       29.82R WCI  34
Westerly       CLEAR     40  24  53 NW8       29.83R WCI  34
 IN MA

CITY           SKY/WX    TMP DP  RH WIND       PRES   REMARKS
Boston         PTCLDY    39  19  44 W21       29.76R WCI  29
Worcester      PTCLDY    33  18  53 W23G35    29.73F WCI  21
Westfield      CLEAR     36  22  56 W12G20    29.82R WCI  28
Provincetown   CLEAR     40  27  59 W17G25    29.75S WCI  31
Nantucket      PTCLDY    37  31  78 SW10      29.77S WCI  30
$$

ANZ330-335-338-340-345-350-353-355-221100-
COASTAL MARINE OBSERVATIONS


STATION/POSITION TIME  SKY/WX   TEMP    WIND        PRES    VSBY  WAVE
                                AIR SEA DIR/SP/G                  HT/PER
                 (UTC)          (F)     (DEG/KT/KT) (MB)    (MI)  (FT/S)
NY HARB ENTRANCE 0850            45 42  310/ 12/ 17 1011.7          2/10
20 S FIRE ISLAND 0950            43 41  330/ 19/ 23 1011.1          2/ 9
GREAT SOUTH BAY  NOT AVBL
23 SSW MONTAUK P 0850            44 42              1010.1          3/11
15 E BARNEGAT LI 0930               43                N/A           3/11
HUDSON CANYON    0850            47 46  300/  8/ 12 1010.3          3/ 9
KINGS POINT      0936            40 38              1013.1
EXECUTION ROCKS  NOT AVBL
CENTRAL LI SOUND 0915            42     290/ 12/ 16   N/A           1
EASTERN LI SOUND NOT AVBL
ROBBINS REEF     0942            41     330/ 16/ 23 1013.6
$$


>>>>>>>>>>>>>>>>>>>>>>>>>>>> KEY <<<<<<<<<<<<<<<<<<<<<<<<<<<
>                                                          <
>     SKY/WX - Sky Condition/Present Weather               <
>     TMP    - Temperature in Fahrenheit                   <
>     DP     - Dew Point in Fahrenheit                     <
>     RH     - Relative Humidity in Percent                <
>     WIND   - Direction (from) and Speed in MPH           <
>     PRES   - Mean Sea Level Pressure (inches of Hg)      <
>     WCI    - Wind Chill Index                            <
>     VSB    - VISIBILITY IN MILES                         <
>     HX     - HEAT INDEX                                  <
>     TC     - TEMPERATURE IN CELSIUS                      <
>     VRB    - VARIABLE WIND DIRECTION                     <
>                                                          <
>>>>>>>>>>>>>>>>>>>>>>>>>>>> KEY <<<<<<<<<<<<<<<<<<<<<<<<<<<




USA.gov is the U.S. government's official web portal to all federal, state and local government web resources and services.